TimePDT,TemperatureF,Dew PointF,Humidity,Sea Level PressureIn,VisibilityMPH,Wind Direction,Wind SpeedMPH,Gust SpeedMPH,PrecipitationIn,Events,Conditions,WindDirDegrees,DateUTC
12:56 AM,53.1,36.0,52,30.04,10.0,WSW,3.5,-,N/A,,Clear,250,2013-06-05 07:56:00
1:56 AM,48.9,35.1,59,30.04,10.0,SSE,4.6,-,N/A,,Clear,160,2013-06-05 08:56:00
2:56 AM,46.9,35.1,63,30.05,10.0,South,5.8,-,N/A,,Clear,170,2013-06-05 09:56:00
3:56 AM,46.9,35.1,63,30.05,10.0,SSE,4.6,-,N/A,,Clear,160,2013-06-05 10:56:00
4:56 AM,46.0,35.1,66,30.05,10.0,SE,3.5,-,N/A,,Clear,140,2013-06-05 11:56:00
5:56 AM,45.0,34.0,65,30.06,10.0,Calm,Calm,-,N/A,,Clear,0,2013-06-05 12:56:00
6:56 AM,54.0,36.0,51,30.06,10.0,SSE,3.5,-,N/A,,Clear,150,2013-06-05 13:56:00
7:56 AM,62.1,37.0,39,30.05,10.0,Calm,Calm,-,N/A,,Clear,0,2013-06-05 14:56:00
8:56 AM,66.9,37.0,33,30.05,10.0,Calm,Calm,-,N/A,,Clear,0,2013-06-05 15:56:00
9:56 AM,73.0,37.0,27,30.04,10.0,NNE,4.6,-,N/A,,Clear,20,2013-06-05 16:56:00
10:56 AM,77.0,37.0,24,30.04,10.0,NNE,3.5,-,N/A,,Clear,30,2013-06-05 17:56:00
11:56 AM,79.0,36.0,21,30.02,10.0,Variable,4.6,-,N/A,,Clear,0,2013-06-05 18:56:00
12:56 PM,82.0,30.0,15,30.01,10.0,Variable,3.5,-,N/A,,Clear,0,2013-06-05 19:56:00
1:56 PM,84.9,33.1,16,30.00,10.0,NNW,9.2,17.3,N/A,,Clear,330,2013-06-05 20:56:00
2:56 PM,84.0,34.0,17,29.98,10.0,Variable,5.8,-,N/A,,Clear,0,2013-06-05 21:56:00
3:56 PM,87.1,34.0,15,29.96,10.0,NW,9.2,-,N/A,,Clear,320,2013-06-05 22:56:00
4:56 PM,87.1,36.0,16,29.95,10.0,Variable,5.8,-,N/A,,Clear,0,2013-06-05 23:56:00
5:56 PM,86.0,39.0,19,29.94,10.0,NW,8.1,18.4,N/A,,Clear,320,2013-06-06 00:56:00
6:56 PM,84.9,39.9,20,29.92,10.0,North,12.7,-,N/A,,Clear,350,2013-06-06 01:56:00
7:56 PM,82.0,39.9,22,29.92,10.0,North,11.5,-,N/A,,Clear,350,2013-06-06 02:56:00
8:56 PM,75.0,46.9,37,29.94,10.0,NNW,9.2,-,N/A,,Clear,340,2013-06-06 03:56:00
9:56 PM,71.1,46.0,41,29.96,10.0,NNW,8.1,-,N/A,,Clear,330,2013-06-06 04:56:00
10:56 PM,68.0,44.1,42,29.96,10.0,NW,6.9,-,N/A,,Clear,320,2013-06-06 05:56:00
11:56 PM,66.0,43.0,43,29.96,10.0,NW,6.9,-,N/A,,Clear,310,2013-06-06 06:56:00